Year,Month,Day,Hour,Minute,Value (Times are PST for temperature in C)
2010,05,07,00,00,5.50
2010,05,07,00,01,5.40
2010,05,07,00,02,5.40
2010,05,07,00,03,5.40
2010,05,07,00,04,5.40
2010,05,07,00,05,5.30
2010,05,07,00,06,5.30
2010,05,07,00,07,5.30
2010,05,07,00,08,5.30
2010,05,07,00,09,5.20
2010,05,07,00,10,5.20
2010,05,07,00,11,5.20
2010,05,07,00,12,5.20
2010,05,07,00,13,5.10
2010,05,07,00,14,5.10
2010,05,07,00,15,5.10
2010,05,07,00,16,5.00
2010,05,07,00,17,5.00
2010,05,07,00,18,5.00
2010,05,07,00,19,5.00
2010,05,07,00,20,4.90
2010,05,07,00,21,4.90
2010,05,07,00,22,4.90
2010,05,07,00,23,4.90
2010,05,07,00,24,4.90
2010,05,07,00,25,4.90
2010,05,07,00,26,4.90
2010,05,07,00,27,4.80
2010,05,07,00,28,4.80
2010,05,07,00,29,4.80
2010,05,07,00,30,4.80
2010,05,07,00,31,4.80
2010,05,07,00,32,4.80
2010,05,07,00,33,4.70
2010,05,07,00,34,4.70
2010,05,07,00,35,4.70
2010,05,07,00,36,4.70
2010,05,07,00,37,4.70
2010,05,07,00,38,4.70
2010,05,07,00,39,4.70
2010,05,07,00,40,4.60
2010,05,07,00,41,4.60
2010,05,07,00,42,4.60
2010,05,07,00,43,4.60
2010,05,07,00,44,4.60
2010,05,07,00,45,4.60
2010,05,07,00,46,4.60
2010,05,07,00,47,4.50
2010,05,07,00,48,4.50
2010,05,07,00,49,4.50
2010,05,07,00,50,4.40
2010,05,07,00,51,4.40
2010,05,07,00,52,4.40
2010,05,07,00,53,4.40
2010,05,07,00,54,4.40
2010,05,07,00,55,4.40
2010,05,07,00,56,4.40
2010,05,07,00,57,4.30
2010,05,07,00,58,4.30
2010,05,07,00,59,4.30
2010,05,07,01,00,4.30
2010,05,07,01,01,4.30
2010,05,07,01,02,4.30
2010,05,07,01,03,4.30
2010,05,07,01,04,4.30
2010,05,07,01,05,4.30
2010,05,07,01,06,4.30
2010,05,07,01,07,4.30
2010,05,07,01,08,4.30
2010,05,07,01,09,4.30
2010,05,07,01,10,4.30
2010,05,07,01,11,4.40
2010,05,07,01,12,4.40
2010,05,07,01,13,4.40
2010,05,07,01,14,4.40
2010,05,07,01,15,4.40
2010,05,07,01,16,4.40
2010,05,07,01,17,4.40
2010,05,07,01,18,4.40
2010,05,07,01,19,4.40
2010,05,07,01,20,4.40
2010,05,07,01,21,4.40
2010,05,07,01,22,4.40
2010,05,07,01,23,4.40
2010,05,07,01,24,4.40
2010,05,07,01,25,4.40
2010,05,07,01,26,4.40
2010,05,07,01,27,4.40
2010,05,07,01,28,4.30
2010,05,07,01,29,4.30
2010,05,07,01,30,4.30
2010,05,07,01,31,4.30
2010,05,07,01,32,4.30
2010,05,07,01,33,4.30
2010,05,07,01,34,4.40
2010,05,07,01,35,4.30
2010,05,07,01,36,4.30
2010,05,07,01,37,4.30
2010,05,07,01,38,4.30
2010,05,07,01,39,4.30
2010,05,07,01,40,4.20
2010,05,07,01,41,4.20
2010,05,07,01,42,4.20
2010,05,07,01,43,4.20
2010,05,07,01,44,4.20
2010,05,07,01,45,4.20
2010,05,07,01,46,4.10
2010,05,07,01,47,4.10
2010,05,07,01,48,4.10
2010,05,07,01,49,4.10
2010,05,07,01,50,4.10
2010,05,07,01,51,4.00
2010,05,07,01,52,4.00
2010,05,07,01,53,4.00
2010,05,07,01,54,4.00
2010,05,07,01,55,4.00
2010,05,07,01,56,3.90
2010,05,07,01,57,3.90
2010,05,07,01,58,3.90
2010,05,07,01,59,3.90
2010,05,07,02,00,3.90
2010,05,07,02,01,3.90
2010,05,07,02,02,3.80
2010,05,07,02,03,3.80
2010,05,07,02,04,3.80
2010,05,07,02,05,3.80
2010,05,07,02,06,3.80
2010,05,07,02,07,3.80
2010,05,07,02,08,3.80
2010,05,07,02,09,3.80
2010,05,07,02,10,3.80
2010,05,07,02,11,3.80
2010,05,07,02,12,3.80
2010,05,07,02,13,3.80
2010,05,07,02,14,3.90
2010,05,07,02,15,3.90
2010,05,07,02,16,3.90
2010,05,07,02,17,3.90
2010,05,07,02,18,3.90
2010,05,07,02,19,3.90
2010,05,07,02,20,3.90
2010,05,07,02,21,3.90
2010,05,07,02,22,3.90
2010,05,07,02,23,3.80
2010,05,07,02,24,3.80
2010,05,07,02,25,3.80
2010,05,07,02,26,3.80
2010,05,07,02,27,3.80
2010,05,07,02,28,3.70
2010,05,07,02,29,3.70
2010,05,07,02,30,3.70
2010,05,07,02,31,3.70
2010,05,07,02,32,3.70
2010,05,07,02,33,3.70
2010,05,07,02,34,3.70
2010,05,07,02,35,3.70
2010,05,07,02,36,3.70
2010,05,07,02,37,3.70
2010,05,07,02,38,3.70
2010,05,07,02,39,3.70
2010,05,07,02,40,3.70
2010,05,07,02,41,3.60
2010,05,07,02,42,3.60
2010,05,07,02,43,3.60
2010,05,07,02,44,3.60
2010,05,07,02,45,3.60
2010,05,07,02,46,3.60
2010,05,07,02,47,3.60
2010,05,07,02,48,3.50
2010,05,07,02,49,3.50
2010,05,07,02,50,3.50
2010,05,07,02,51,3.50
2010,05,07,02,52,3.50
2010,05,07,02,53,3.40
2010,05,07,02,54,3.40
2010,05,07,02,55,3.40
2010,05,07,02,56,3.40
2010,05,07,02,57,3.30
2010,05,07,02,58,3.30
2010,05,07,02,59,3.30
2010,05,07,03,00,3.30
2010,05,07,03,01,3.30
2010,05,07,03,02,3.30
2010,05,07,03,03,3.30
2010,05,07,03,04,3.20
2010,05,07,03,05,3.20
2010,05,07,03,06,3.20
2010,05,07,03,07,3.20
2010,05,07,03,08,3.20
2010,05,07,03,09,3.20
2010,05,07,03,10,3.20
2010,05,07,03,11,3.10
2010,05,07,03,12,3.10
2010,05,07,03,13,3.10
2010,05,07,03,14,3.10
2010,05,07,03,15,3.10
2010,05,07,03,16,3.10
2010,05,07,03,17,3.10
2010,05,07,03,18,3.10
2010,05,07,03,19,3.10
2010,05,07,03,20,3.10
2010,05,07,03,21,3.00
2010,05,07,03,22,3.00
2010,05,07,03,23,3.00
2010,05,07,03,24,3.00
2010,05,07,03,25,3.00
2010,05,07,03,26,3.00
2010,05,07,03,27,3.00
2010,05,07,03,28,3.00
2010,05,07,03,29,3.00
2010,05,07,03,30,3.00
2010,05,07,03,31,2.90
2010,05,07,03,32,2.90
2010,05,07,03,33,2.90
2010,05,07,03,34,2.90
2010,05,07,03,35,2.90
2010,05,07,03,36,2.90
2010,05,07,03,37,2.90
2010,05,07,03,38,2.90
2010,05,07,03,39,2.90
2010,05,07,03,40,2.90
2010,05,07,03,41,2.90
2010,05,07,03,42,2.90
2010,05,07,03,43,2.90
2010,05,07,03,44,2.90
2010,05,07,03,45,2.90
2010,05,07,03,46,2.90
2010,05,07,03,47,2.90
2010,05,07,03,48,2.90
2010,05,07,03,49,2.90
2010,05,07,03,50,2.90
2010,05,07,03,51,2.90
2010,05,07,03,52,2.90
2010,05,07,03,53,2.90
2010,05,07,03,54,2.90
2010,05,07,03,55,2.90
2010,05,07,03,56,2.90
2010,05,07,03,57,2.80
2010,05,07,03,58,2.80
2010,05,07,03,59,2.80
2010,05,07,04,00,2.80
2010,05,07,04,01,2.80
2010,05,07,04,02,2.80
2010,05,07,04,03,2.80
2010,05,07,04,04,2.80
2010,05,07,04,05,2.80
2010,05,07,04,06,2.80
2010,05,07,04,07,2.80
2010,05,07,04,08,2.80
2010,05,07,04,09,2.80
2010,05,07,04,10,2.80
2010,05,07,04,11,2.80
2010,05,07,04,12,2.80
2010,05,07,04,13,2.80
2010,05,07,04,14,2.80
2010,05,07,04,15,2.80
2010,05,07,04,16,2.80
2010,05,07,04,17,2.80
2010,05,07,04,18,2.80
2010,05,07,04,19,2.80
2010,05,07,04,20,2.80
2010,05,07,04,21,2.80
2010,05,07,04,22,2.80
2010,05,07,04,23,2.80
2010,05,07,04,24,2.80
2010,05,07,04,25,2.80
2010,05,07,04,26,2.80
2010,05,07,04,27,2.80
2010,05,07,04,28,2.80
2010,05,07,04,29,2.80
2010,05,07,04,30,2.80
2010,05,07,04,31,2.80
2010,05,07,04,32,2.80
2010,05,07,04,33,2.80
2010,05,07,04,34,2.80
2010,05,07,04,35,2.80
2010,05,07,04,36,2.80
2010,05,07,04,37,2.80
2010,05,07,04,38,2.80
2010,05,07,04,39,2.80
2010,05,07,04,40,2.80
2010,05,07,04,41,2.80
2010,05,07,04,42,2.70
2010,05,07,04,43,2.70
2010,05,07,04,44,2.70
2010,05,07,04,45,2.70
2010,05,07,04,46,2.70
2010,05,07,04,47,2.70
2010,05,07,04,48,2.70
2010,05,07,04,49,2.70
2010,05,07,04,50,2.70
2010,05,07,04,51,2.70
2010,05,07,04,52,2.70
2010,05,07,04,53,2.70
2010,05,07,04,54,2.70
2010,05,07,04,55,2.70
2010,05,07,04,56,2.70
2010,05,07,04,57,2.60
2010,05,07,04,58,2.60
2010,05,07,04,59,2.60
2010,05,07,05,00,2.60
2010,05,07,05,01,2.60
2010,05,07,05,02,2.60
2010,05,07,05,03,2.60
2010,05,07,05,04,2.50
2010,05,07,05,05,2.50
2010,05,07,05,06,2.50
2010,05,07,05,07,2.50
2010,05,07,05,08,2.40
2010,05,07,05,09,2.40
2010,05,07,05,10,2.40
2010,05,07,05,11,2.40
2010,05,07,05,12,2.40
2010,05,07,05,13,2.40
2010,05,07,05,14,2.40
2010,05,07,05,15,2.40
2010,05,07,05,16,2.40
2010,05,07,05,17,2.40
2010,05,07,05,18,2.40
2010,05,07,05,19,2.40
2010,05,07,05,20,2.40
2010,05,07,05,21,2.40
2010,05,07,05,22,2.40
2010,05,07,05,23,2.40
2010,05,07,05,24,2.40
2010,05,07,05,25,2.40
2010,05,07,05,26,2.40
2010,05,07,05,27,2.40
2010,05,07,05,28,2.40
2010,05,07,05,29,2.40
2010,05,07,05,30,2.40
2010,05,07,05,31,2.40
2010,05,07,05,32,2.40
2010,05,07,05,33,2.40
2010,05,07,05,34,2.40
2010,05,07,05,35,2.40
2010,05,07,05,36,2.40
2010,05,07,05,37,2.40
2010,05,07,05,38,2.40
2010,05,07,05,39,2.40
2010,05,07,05,40,2.40
2010,05,07,05,41,2.40
2010,05,07,05,42,2.40
2010,05,07,05,43,2.40
2010,05,07,05,44,2.40
2010,05,07,05,45,2.40
2010,05,07,05,46,2.40
2010,05,07,05,47,2.40
2010,05,07,05,48,2.40
2010,05,07,05,49,2.40
2010,05,07,05,50,2.40
2010,05,07,05,51,2.40
2010,05,07,05,52,2.40
2010,05,07,05,53,2.40
2010,05,07,05,54,2.40
2010,05,07,05,55,2.40
2010,05,07,05,56,2.40
2010,05,07,05,57,2.40
2010,05,07,05,58,2.40
2010,05,07,05,59,2.40
2010,05,07,06,00,2.40
2010,05,07,06,01,2.40
2010,05,07,06,02,2.40
2010,05,07,06,03,2.40
2010,05,07,06,04,2.40
2010,05,07,06,05,2.40
2010,05,07,06,06,2.40
2010,05,07,06,07,2.40
2010,05,07,06,08,2.40
2010,05,07,06,09,2.40
2010,05,07,06,10,2.40
2010,05,07,06,11,2.40
2010,05,07,06,12,2.40
2010,05,07,06,13,2.50
2010,05,07,06,14,2.50
2010,05,07,06,15,2.50
2010,05,07,06,16,2.50
2010,05,07,06,17,2.50
2010,05,07,06,18,2.60
2010,05,07,06,19,2.60
2010,05,07,06,20,2.60
2010,05,07,06,21,2.60
2010,05,07,06,22,2.60
2010,05,07,06,23,2.70
2010,05,07,06,24,2.70
2010,05,07,06,25,2.70
2010,05,07,06,26,2.70
2010,05,07,06,27,2.80
2010,05,07,06,28,2.80
2010,05,07,06,29,2.80
2010,05,07,06,30,2.80
2010,05,07,06,31,2.80
2010,05,07,06,32,2.90
2010,05,07,06,33,2.90
2010,05,07,06,34,2.90
2010,05,07,06,35,2.90
2010,05,07,06,36,2.90
2010,05,07,06,37,2.90
2010,05,07,06,38,3.00
2010,05,07,06,39,3.00
2010,05,07,06,40,3.00
2010,05,07,06,41,3.00
2010,05,07,06,42,3.00
2010,05,07,06,43,3.00
2010,05,07,06,44,3.10
2010,05,07,06,45,3.10
2010,05,07,06,46,3.10
2010,05,07,06,47,3.10
2010,05,07,06,48,3.10
2010,05,07,06,49,3.20
2010,05,07,06,50,3.20
2010,05,07,06,51,3.20
2010,05,07,06,52,3.30
2010,05,07,06,53,3.30
2010,05,07,06,54,3.30
2010,05,07,06,55,3.40
2010,05,07,06,56,3.40
2010,05,07,06,57,3.40
2010,05,07,06,58,3.50
2010,05,07,06,59,3.50
2010,05,07,07,00,3.60
2010,05,07,07,01,3.60
2010,05,07,07,02,3.60
2010,05,07,07,03,3.70
2010,05,07,07,04,3.70
2010,05,07,07,05,3.80
2010,05,07,07,06,3.80
2010,05,07,07,07,3.90
2010,05,07,07,08,3.90
2010,05,07,07,09,4.00
2010,05,07,07,10,4.00
2010,05,07,07,11,4.10
2010,05,07,07,12,4.10
2010,05,07,07,13,4.20
2010,05,07,07,14,4.20
2010,05,07,07,15,4.30
2010,05,07,07,16,4.30
2010,05,07,07,17,4.40
2010,05,07,07,18,4.40
2010,05,07,07,19,4.50
2010,05,07,07,20,4.50
2010,05,07,07,21,4.60
2010,05,07,07,22,4.70
2010,05,07,07,23,4.80
2010,05,07,07,24,4.80
2010,05,07,07,25,4.90
2010,05,07,07,26,4.90
2010,05,07,07,27,5.00
2010,05,07,07,28,5.10
2010,05,07,07,29,5.20
2010,05,07,07,30,5.20
2010,05,07,07,31,5.30
2010,05,07,07,32,5.30
2010,05,07,07,33,5.40
2010,05,07,07,34,5.50
2010,05,07,07,35,5.50
2010,05,07,07,36,5.60
2010,05,07,07,37,5.70
2010,05,07,07,38,5.70
2010,05,07,07,39,5.80
2010,05,07,07,40,5.90
2010,05,07,07,41,5.90
2010,05,07,07,42,6.00
2010,05,07,07,43,6.10
2010,05,07,07,44,6.10
2010,05,07,07,45,6.20
2010,05,07,07,46,6.30
2010,05,07,07,47,6.30
2010,05,07,07,48,6.40
2010,05,07,07,49,6.50
2010,05,07,07,50,6.50
2010,05,07,07,51,6.60
2010,05,07,07,52,6.70
2010,05,07,07,53,6.70
2010,05,07,07,54,6.80
2010,05,07,07,55,6.90
2010,05,07,07,56,7.00
2010,05,07,07,57,7.00
2010,05,07,07,58,7.10
2010,05,07,07,59,7.20
2010,05,07,08,00,7.30
2010,05,07,08,01,7.40
2010,05,07,08,02,7.40
2010,05,07,08,03,7.50
2010,05,07,08,04,7.60
2010,05,07,08,05,7.70
2010,05,07,08,06,7.80
2010,05,07,08,07,7.80
2010,05,07,08,08,7.90
2010,05,07,08,09,8.00
2010,05,07,08,10,8.10
2010,05,07,08,11,8.20
2010,05,07,08,12,8.30
2010,05,07,08,13,8.40
2010,05,07,08,14,8.40
2010,05,07,08,15,8.50
2010,05,07,08,16,8.60
2010,05,07,08,17,8.70
2010,05,07,08,18,8.80
2010,05,07,08,19,8.90
2010,05,07,08,20,8.90
2010,05,07,08,21,9.00
2010,05,07,08,22,9.00
2010,05,07,08,23,9.10
2010,05,07,08,24,9.10
2010,05,07,08,25,9.20
2010,05,07,08,26,9.30
2010,05,07,08,27,9.30
2010,05,07,08,28,9.40
2010,05,07,08,29,9.40
2010,05,07,08,30,9.50
2010,05,07,08,31,9.50
2010,05,07,08,32,9.60
2010,05,07,08,33,9.60
2010,05,07,08,34,9.70
2010,05,07,08,35,9.70
2010,05,07,08,36,9.70
2010,05,07,08,37,9.70
2010,05,07,08,38,9.70
2010,05,07,08,39,9.70
2010,05,07,08,40,9.70
2010,05,07,08,41,9.60
2010,05,07,08,42,9.60
2010,05,07,08,43,9.60
2010,05,07,08,44,9.60
2010,05,07,08,45,9.50
2010,05,07,08,46,9.50
2010,05,07,08,47,9.50
2010,05,07,08,48,9.40
2010,05,07,08,49,9.40
2010,05,07,08,50,9.40
2010,05,07,08,51,9.40
2010,05,07,08,52,9.30
2010,05,07,08,53,9.30
2010,05,07,08,54,9.20
2010,05,07,08,55,9.20
2010,05,07,08,56,9.20
2010,05,07,08,57,9.20
2010,05,07,08,58,9.20
2010,05,07,08,59,9.20
2010,05,07,09,00,9.20
2010,05,07,09,01,9.30
2010,05,07,09,02,9.30
2010,05,07,09,03,9.30
2010,05,07,09,04,9.30
2010,05,07,09,05,9.40
2010,05,07,09,06,9.40
2010,05,07,09,07,9.50
2010,05,07,09,08,9.50
2010,05,07,09,09,9.60
2010,05,07,09,10,9.60
2010,05,07,09,11,9.60
2010,05,07,09,12,9.60
2010,05,07,09,13,9.60
2010,05,07,09,14,9.60
2010,05,07,09,15,9.60
2010,05,07,09,16,9.70
2010,05,07,09,17,9.70
2010,05,07,09,18,9.80
2010,05,07,09,19,9.80
2010,05,07,09,20,9.80
2010,05,07,09,21,9.80
2010,05,07,09,22,9.90
2010,05,07,09,23,9.90
2010,05,07,09,24,9.90
2010,05,07,09,25,10.00
2010,05,07,09,26,10.00
2010,05,07,09,27,10.00
2010,05,07,09,28,10.10
2010,05,07,09,29,10.20
2010,05,07,09,30,10.20
2010,05,07,09,31,10.30
2010,05,07,09,32,10.30
2010,05,07,09,33,10.30
2010,05,07,09,34,10.40
2010,05,07,09,35,10.40
2010,05,07,09,36,10.40
2010,05,07,09,37,10.40
2010,05,07,09,38,10.40
2010,05,07,09,39,10.30
2010,05,07,09,40,10.30
2010,05,07,09,41,10.30
2010,05,07,09,42,10.30
2010,05,07,09,43,10.30
2010,05,07,09,44,10.30
2010,05,07,09,45,10.30
2010,05,07,09,46,10.30
2010,05,07,09,47,10.30
2010,05,07,09,48,10.30
2010,05,07,09,49,10.30
2010,05,07,09,50,10.30
2010,05,07,09,51,10.30
2010,05,07,09,52,10.30
2010,05,07,09,53,10.30
2010,05,07,09,54,10.30
2010,05,07,09,55,10.30
2010,05,07,09,56,10.30
2010,05,07,09,57,10.20
2010,05,07,09,58,10.20
2010,05,07,09,59,10.20
2010,05,07,10,00,10.20
2010,05,07,10,01,10.20
2010,05,07,10,02,10.20
2010,05,07,10,03,10.10
2010,05,07,10,04,10.10
2010,05,07,10,05,10.20
2010,05,07,10,06,10.20
2010,05,07,10,07,10.30
2010,05,07,10,08,10.30
2010,05,07,10,09,10.40
2010,05,07,10,10,10.50
2010,05,07,10,11,10.60
2010,05,07,10,12,10.70
2010,05,07,10,13,10.80
2010,05,07,10,14,10.80
2010,05,07,10,15,10.90
2010,05,07,10,16,10.90
2010,05,07,10,17,11.00
2010,05,07,10,18,11.10
2010,05,07,10,19,11.10
2010,05,07,10,20,11.10
2010,05,07,10,21,11.10
2010,05,07,10,22,11.10
2010,05,07,10,23,11.00
2010,05,07,10,24,11.00
2010,05,07,10,25,10.90
2010,05,07,10,26,10.90
2010,05,07,10,27,10.90
2010,05,07,10,28,10.90
2010,05,07,10,29,10.80
2010,05,07,10,30,10.80
2010,05,07,10,31,10.90
2010,05,07,10,32,10.90
2010,05,07,10,33,10.90
2010,05,07,10,34,10.80
2010,05,07,10,35,10.80
2010,05,07,10,36,10.80
2010,05,07,10,37,10.70
2010,05,07,10,38,10.70
2010,05,07,10,39,10.70
2010,05,07,10,40,10.70
2010,05,07,10,41,10.70
2010,05,07,10,42,10.60
2010,05,07,10,43,10.60
2010,05,07,10,44,10.60
2010,05,07,10,45,10.60
2010,05,07,10,46,10.50
2010,05,07,10,47,10.50
2010,05,07,10,48,10.50
2010,05,07,10,49,10.50
2010,05,07,10,50,10.60
2010,05,07,10,51,10.60
2010,05,07,10,52,10.70
2010,05,07,10,53,10.80
2010,05,07,10,54,10.90
2010,05,07,10,55,11.00
2010,05,07,10,56,11.20
2010,05,07,10,57,11.30
2010,05,07,10,58,11.40
2010,05,07,10,59,11.40
2010,05,07,11,00,11.50
2010,05,07,11,01,11.50
2010,05,07,11,02,11.60
2010,05,07,11,03,11.70
2010,05,07,11,04,11.70
2010,05,07,11,05,11.80
2010,05,07,11,06,11.90
2010,05,07,11,07,11.90
2010,05,07,11,08,11.90
2010,05,07,11,09,11.90
2010,05,07,11,10,11.90
2010,05,07,11,11,11.80
2010,05,07,11,12,11.80
2010,05,07,11,13,11.80
2010,05,07,11,14,11.80
2010,05,07,11,15,11.80
2010,05,07,11,16,11.90
2010,05,07,11,17,11.90
2010,05,07,11,18,11.90
2010,05,07,11,19,11.90
2010,05,07,11,20,11.90
2010,05,07,11,21,11.90
2010,05,07,11,22,11.90
2010,05,07,11,23,11.90
2010,05,07,11,24,12.00
2010,05,07,11,25,12.00
2010,05,07,11,26,12.00
2010,05,07,11,27,12.00
2010,05,07,11,28,12.10
2010,05,07,11,29,12.10
2010,05,07,11,30,12.10
2010,05,07,11,31,12.20
2010,05,07,11,32,12.20
2010,05,07,11,33,12.30
2010,05,07,11,34,12.30
2010,05,07,11,35,12.40
2010,05,07,11,36,12.40
2010,05,07,11,37,12.50
2010,05,07,11,38,12.50
2010,05,07,11,39,12.50
2010,05,07,11,40,12.50
2010,05,07,11,41,12.50
2010,05,07,11,42,12.60
2010,05,07,11,43,12.60
2010,05,07,11,44,12.60
2010,05,07,11,45,12.60
2010,05,07,11,46,12.70
2010,05,07,11,47,12.60
2010,05,07,11,48,12.60
2010,05,07,11,49,12.60
2010,05,07,11,50,12.70
2010,05,07,11,51,12.70
2010,05,07,11,52,12.80
2010,05,07,11,53,12.90
2010,05,07,11,54,12.90
2010,05,07,11,55,13.00
2010,05,07,11,56,13.10
2010,05,07,11,57,13.10
2010,05,07,11,58,13.20
2010,05,07,11,59,13.30
2010,05,07,12,00,13.40
2010,05,07,12,01,13.50
2010,05,07,12,02,13.50
2010,05,07,12,03,13.60
2010,05,07,12,04,13.60
2010,05,07,12,05,13.70
2010,05,07,12,06,13.70
2010,05,07,12,07,13.80
2010,05,07,12,08,13.80
2010,05,07,12,09,13.80
2010,05,07,12,10,13.80
2010,05,07,12,11,13.90
2010,05,07,12,12,13.80
2010,05,07,12,13,13.80
2010,05,07,12,14,13.70
2010,05,07,12,15,13.70
2010,05,07,12,16,13.70
2010,05,07,12,17,13.70
2010,05,07,12,18,13.60
2010,05,07,12,19,13.60
2010,05,07,12,20,13.50
2010,05,07,12,21,13.40
2010,05,07,12,22,13.40
2010,05,07,12,23,13.40
2010,05,07,12,24,13.40
2010,05,07,12,25,13.40
2010,05,07,12,26,13.40
2010,05,07,12,27,13.40
2010,05,07,12,28,13.40
2010,05,07,12,29,13.40
2010,05,07,12,30,13.40
2010,05,07,12,31,13.50
2010,05,07,12,32,13.50
2010,05,07,12,33,13.50
2010,05,07,12,34,13.60
2010,05,07,12,35,13.60
2010,05,07,12,36,13.60
2010,05,07,12,37,13.50
2010,05,07,12,38,13.50
2010,05,07,12,39,13.50
2010,05,07,12,40,13.40
2010,05,07,12,41,13.40
2010,05,07,12,42,13.30
2010,05,07,12,43,13.30
2010,05,07,12,44,13.20
2010,05,07,12,45,13.20
2010,05,07,12,46,13.10
2010,05,07,12,47,13.10
2010,05,07,12,48,13.00
2010,05,07,12,49,13.10
2010,05,07,12,50,13.10
2010,05,07,12,51,13.10
2010,05,07,12,52,13.10
2010,05,07,12,53,13.20
2010,05,07,12,54,13.20
2010,05,07,12,55,13.30
2010,05,07,12,56,13.40
2010,05,07,12,57,13.50
2010,05,07,12,58,13.60
2010,05,07,12,59,13.70
2010,05,07,13,00,13.70
2010,05,07,13,01,13.80
2010,05,07,13,02,13.80
2010,05,07,13,03,13.80
2010,05,07,13,04,13.80
2010,05,07,13,05,13.80
2010,05,07,13,06,13.80
2010,05,07,13,07,13.80
2010,05,07,13,08,13.80
2010,05,07,13,09,13.80
2010,05,07,13,10,13.80
2010,05,07,13,11,13.90
2010,05,07,13,12,13.90
2010,05,07,13,13,13.90
2010,05,07,13,14,13.90
2010,05,07,13,15,13.90
2010,05,07,13,16,13.90
2010,05,07,13,17,13.90
2010,05,07,13,18,13.90
2010,05,07,13,19,13.90
2010,05,07,13,20,14.00
2010,05,07,13,21,14.10
2010,05,07,13,22,14.10
2010,05,07,13,23,14.20
2010,05,07,13,24,14.20
2010,05,07,13,25,14.30
2010,05,07,13,26,14.30
2010,05,07,13,27,14.20
2010,05,07,13,28,14.20
2010,05,07,13,29,14.20
2010,05,07,13,30,14.20
2010,05,07,13,31,14.20
2010,05,07,13,32,14.10
2010,05,07,13,33,14.10
2010,05,07,13,34,14.00
2010,05,07,13,35,13.90
2010,05,07,13,36,13.90
2010,05,07,13,37,13.80
2010,05,07,13,38,13.80
2010,05,07,13,39,13.70
2010,05,07,13,40,13.70
2010,05,07,13,41,13.70
2010,05,07,13,42,13.60
2010,05,07,13,43,13.60
2010,05,07,13,44,13.60
2010,05,07,13,45,13.50
2010,05,07,13,46,13.50
2010,05,07,13,47,13.40
2010,05,07,13,48,13.40
2010,05,07,13,49,13.40
2010,05,07,13,50,13.40
2010,05,07,13,51,13.40
2010,05,07,13,52,13.40
2010,05,07,13,53,13.40
2010,05,07,13,54,13.40
2010,05,07,13,55,13.50
2010,05,07,13,56,13.50
2010,05,07,13,57,13.50
2010,05,07,13,58,13.50
2010,05,07,13,59,13.60
2010,05,07,14,00,13.60
2010,05,07,14,01,13.60
2010,05,07,14,02,13.60
2010,05,07,14,03,13.70
2010,05,07,14,04,13.70
2010,05,07,14,05,13.70
2010,05,07,14,06,13.70
2010,05,07,14,07,13.80
2010,05,07,14,08,13.80
2010,05,07,14,09,13.90
2010,05,07,14,10,13.90
2010,05,07,14,11,14.00
2010,05,07,14,12,14.00
2010,05,07,14,13,14.10
2010,05,07,14,14,14.10
2010,05,07,14,15,14.20
2010,05,07,14,16,14.20
2010,05,07,14,17,14.20
2010,05,07,14,18,14.30
2010,05,07,14,19,14.40
2010,05,07,14,20,14.40
2010,05,07,14,21,14.50
2010,05,07,14,22,14.50
2010,05,07,14,23,14.60
2010,05,07,14,24,14.70
2010,05,07,14,25,14.80
2010,05,07,14,26,14.90
2010,05,07,14,27,14.90
2010,05,07,14,28,15.00
2010,05,07,14,29,15.00
2010,05,07,14,30,15.00
2010,05,07,14,31,15.00
2010,05,07,14,32,15.00
2010,05,07,14,33,14.90
2010,05,07,14,34,14.80
2010,05,07,14,35,14.70
2010,05,07,14,36,14.60
2010,05,07,14,37,14.50
2010,05,07,14,38,14.50
2010,05,07,14,39,14.40
2010,05,07,14,40,14.40
2010,05,07,14,41,14.40
2010,05,07,14,42,14.40
2010,05,07,14,43,14.50
2010,05,07,14,44,14.50
2010,05,07,14,45,14.60
2010,05,07,14,46,14.60
2010,05,07,14,47,14.70
2010,05,07,14,48,14.80
2010,05,07,14,49,14.80
2010,05,07,14,50,14.90
2010,05,07,14,51,14.90
2010,05,07,14,52,15.00
2010,05,07,14,53,15.00
2010,05,07,14,54,15.10
2010,05,07,14,55,15.10
2010,05,07,14,56,15.10
2010,05,07,14,57,15.20
2010,05,07,14,58,15.20
2010,05,07,14,59,15.30
2010,05,07,15,00,15.40
2010,05,07,15,01,15.50
2010,05,07,15,02,15.50
2010,05,07,15,03,15.60
2010,05,07,15,04,15.60
2010,05,07,15,05,15.60
2010,05,07,15,06,15.60
2010,05,07,15,07,15.70
2010,05,07,15,08,15.70
2010,05,07,15,09,15.80
2010,05,07,15,10,15.70
2010,05,07,15,11,15.70
2010,05,07,15,12,15.70
2010,05,07,15,13,15.70
2010,05,07,15,14,15.70
2010,05,07,15,15,15.60
2010,05,07,15,16,15.50
2010,05,07,15,17,15.50
2010,05,07,15,18,15.50
2010,05,07,15,19,15.50
2010,05,07,15,20,15.50
2010,05,07,15,21,15.60
2010,05,07,15,22,15.60
2010,05,07,15,23,15.60
2010,05,07,15,24,15.70
2010,05,07,15,25,15.60
2010,05,07,15,26,15.60
2010,05,07,15,27,15.60
2010,05,07,15,28,15.60
2010,05,07,15,29,15.60
2010,05,07,15,30,15.70
2010,05,07,15,31,15.70
2010,05,07,15,32,15.80
2010,05,07,15,33,15.80
2010,05,07,15,34,15.80
2010,05,07,15,35,15.80
2010,05,07,15,36,15.80
2010,05,07,15,37,15.90
2010,05,07,15,38,15.90
2010,05,07,15,39,15.90
2010,05,07,15,40,15.90
2010,05,07,15,41,15.90
2010,05,07,15,42,15.90
2010,05,07,15,43,15.90
2010,05,07,15,44,16.00
2010,05,07,15,45,16.00
2010,05,07,15,46,16.00
2010,05,07,15,47,16.00
2010,05,07,15,48,16.10
2010,05,07,15,49,16.00
2010,05,07,15,50,16.00
2010,05,07,15,51,16.00
2010,05,07,15,52,16.00
2010,05,07,15,53,16.00
2010,05,07,15,54,16.00
2010,05,07,15,55,16.00
2010,05,07,15,56,15.90
2010,05,07,15,57,15.90
2010,05,07,15,58,16.00
2010,05,07,15,59,16.00
2010,05,07,16,00,16.00
2010,05,07,16,01,16.00
2010,05,07,16,02,16.00
2010,05,07,16,03,16.00
2010,05,07,16,04,16.00
2010,05,07,16,05,15.90
2010,05,07,16,06,15.90
2010,05,07,16,07,15.90
2010,05,07,16,08,15.90
2010,05,07,16,09,15.80
2010,05,07,16,10,15.80
2010,05,07,16,11,15.70
2010,05,07,16,12,15.70
2010,05,07,16,13,15.70
2010,05,07,16,14,15.70
2010,05,07,16,15,15.70
2010,05,07,16,16,15.70
2010,05,07,16,17,15.70
2010,05,07,16,18,15.70
2010,05,07,16,19,15.70
2010,05,07,16,20,15.70
2010,05,07,16,21,15.70
2010,05,07,16,22,15.70
2010,05,07,16,23,15.70
2010,05,07,16,24,15.70
2010,05,07,16,25,15.60
2010,05,07,16,26,15.60
2010,05,07,16,27,15.60
2010,05,07,16,28,15.60
2010,05,07,16,29,15.70
2010,05,07,16,30,15.70
2010,05,07,16,31,15.70
2010,05,07,16,32,15.70
2010,05,07,16,33,15.70
2010,05,07,16,34,15.80
2010,05,07,16,35,15.80
2010,05,07,16,36,15.80
2010,05,07,16,37,15.80
2010,05,07,16,38,15.80
2010,05,07,16,39,15.80
2010,05,07,16,40,15.80
2010,05,07,16,41,15.90
2010,05,07,16,42,15.90
2010,05,07,16,43,15.90
2010,05,07,16,44,15.90
2010,05,07,16,45,15.80
2010,05,07,16,46,15.90
2010,05,07,16,47,15.90
2010,05,07,16,48,15.90
2010,05,07,16,49,15.90
2010,05,07,16,50,16.00
2010,05,07,16,51,16.00
2010,05,07,16,52,16.00
2010,05,07,16,53,16.00
2010,05,07,16,54,15.90
2010,05,07,16,55,15.90
2010,05,07,16,56,15.90
2010,05,07,16,57,15.90
2010,05,07,16,58,15.90
2010,05,07,16,59,15.90
2010,05,07,17,00,15.90
2010,05,07,17,01,15.90
2010,05,07,17,02,15.80
2010,05,07,17,03,15.80
2010,05,07,17,04,15.80
2010,05,07,17,05,15.80
2010,05,07,17,06,15.80
2010,05,07,17,07,15.80
2010,05,07,17,08,15.80
2010,05,07,17,09,15.80
2010,05,07,17,10,15.80
2010,05,07,17,11,15.80
2010,05,07,17,12,15.80
2010,05,07,17,13,15.90
2010,05,07,17,14,15.90
2010,05,07,17,15,16.00
2010,05,07,17,16,16.10
2010,05,07,17,17,16.10
2010,05,07,17,18,16.20
2010,05,07,17,19,16.20
2010,05,07,17,20,16.20
2010,05,07,17,21,16.20
2010,05,07,17,22,16.20
2010,05,07,17,23,16.10
2010,05,07,17,24,16.10
2010,05,07,17,25,16.00
2010,05,07,17,26,16.00
2010,05,07,17,27,16.10
2010,05,07,17,28,16.10
2010,05,07,17,29,16.10
2010,05,07,17,30,16.10
2010,05,07,17,31,16.10
2010,05,07,17,32,16.10
2010,05,07,17,33,16.10
2010,05,07,17,34,16.10
2010,05,07,17,35,16.10
2010,05,07,17,36,16.00
2010,05,07,17,37,16.00
2010,05,07,17,38,15.90
2010,05,07,17,39,15.90
2010,05,07,17,40,15.90
2010,05,07,17,41,15.80
2010,05,07,17,42,15.80
2010,05,07,17,43,15.80
2010,05,07,17,44,15.70